Home > Weather > Cambridge > Past weeks

Flag for Canada Past Weather in Cambridge, Ontario, Canada — Yesterday and Last 2 Weeks

Now
86 °F

Sunny.


Feels Like: 85 °F
Forecast: 65 / 89 °F
Wind: 14 mph from North

Location: Waterloo Well

Current Time: Jul 23, 2016 at 1:07:53 PM

Latest Report: Jul 23, 2016 at 12:00 PM


Visibility: 9 mi

Pressure: 29.96 "Hg

Humidity: 35%

Dew Point: 55 °F

Location of CambridgeLocation

Past Weather in Cambridge — Graph

°F

Cambridge Temperature Yesterday

Maximum temperature yesterday: 90 °F (at 2:00 PM)
Minimum temperature yesterday: 72 °F (at 5:00 AM)
Average temperature yesterday: 80 °F

High & Low Weather Summary for the Past Weeks

 TemperatureHumidityPressure
High93 °F (Jul 13, 3:00 PM)100% (Jul 9, 3:50 AM)30.30 "Hg (Jul 9, 3:50 AM)
Low46 °F (Jul 20, 5:00 AM)28% (Jul 13, 5:00 PM)29.69 "Hg (Jul 9, 12:00 AM)
Average71 °F67%29.97 "Hg
* Reported Jul 8 12:00 PM — Jul 23 12:00 PM, Cambridge, Weather by CustomWeather, © 2016

Note: Actual official high and low records may vary slightly from our data, if they occured in-between our weather recording intervals... More about our weather records

Advertising

Cambridge Weather History for the Previous 24 Hours

Scroll right to see more
 ConditionsComfort  
Time TempWeatherWind HumidityBarometerVisibility
12:00 PM
Sat, Jul 23
86 °FSunny.14 mph35%29.96 "Hg9 mi
11:00 AM84 °FSunny.12 mph40%29.96 "Hg9 mi
10:00 AM81 °FSunny.12 mph51%29.96 "Hg9 mi
9:00 AM77 °FSunny.8 mph57%29.94 "Hg9 mi
8:00 AM73 °FSunny.6 mph65%29.94 "Hg9 mi
7:00 AM66 °FClear.5 mph83%29.93 "Hg9 mi
6:00 AM64 °FClear.5 mph83%29.93 "Hg9 mi
5:00 AM64 °FClear.7 mph83%29.93 "Hg9 mi
4:00 AM66 °FClear.8 mph78%29.93 "Hg9 mi
3:00 AM64 °FClear.6 mph83%29.93 "Hg9 mi
2:00 AM64 °FClear.6 mph83%29.92 "Hg8 mi
1:00 AM64 °FClear.2 mph88%29.91 "Hg9 mi
12:00 AM70 °FClear.No wind73%29.91 "Hg9 mi
11:00 PM
Fri, Jul 22
73 °FPassing clouds.5 mph61%29.91 "Hg9 mi
10:00 PM75 °FPassing clouds.5 mph57%29.90 "Hg9 mi
9:00 PM79 °FScattered clouds.5 mph48%29.88 "Hg9 mi
8:00 PM84 °FSunny.8 mph37%29.88 "Hg9 mi
7:00 PM86 °FSunny.18 mph33%29.87 "Hg9 mi
6:00 PM88 °FSunny.18 mph33%29.88 "Hg9 mi
5:00 PM88 °FSunny.18 mph35%29.89 "Hg9 mi
4:00 PM90 °FSunny.20 mph31%29.90 "Hg9 mi
3:00 PM90 °FSunny.15 mph33%29.90 "Hg9 mi
2:00 PM90 °FSunny.17 mph36%29.90 "Hg9 mi
1:00 PM88 °FPassing clouds.16 mph35%29.90 "Hg9 mi
Weather by CustomWeather, © 2016

See weather overviewHow to use our weather pages